#timestamp,LO_Frequency,Hit,StdDev 
1686646815.6,286047002.3,N
1686646835.5,286046999.7,N
1686646855.3,286047002.4,N
1686646875.1,286046999.9,N
1686646895.9,286047000.2,N
1686646915.7,286046999.7,N
1686646935.5,286047000.3,N
1686646955.4,286047002.4,N
1686646975.2,286047002.8,N
1686646995.1,286047001.8,N
1686646996.0,286047001.8,N
1686647015.8,286047002.0,N
1686647035.6,286047001.5,N
1686647055.5,286047002.5,N
1686647075.3,286047002.4,N
1686647095.2,286047002.2,N
1686647115.9,286047001.8,N
1686647135.7,286047002.5,N
1686647155.6,286047002.1,N
1686647175.4,286047001.9,N
1686647195.2,286047002.0,N
1686647215.1,286047002.5,N
1686647216.0,286047002.5,N
1686647235.8,286047001.6,N
1686647255.7,286047001.8,N
1686647275.5,286047001.7,N
1686647295.3,286047002.2,N
1686647315.2,286047002.5,N
1686647335.0,286047002.8,N
1686647335.9,286047002.8,N
1686647355.8,286047002.5,N
1686647375.6,286047002.3,N
1686647395.4,286047002.1,N
1686647415.3,286047001.6,N
1686647435.1,286047002.4,Y
1686647455.9,286047000.9,P
1686647475.7,286046998.3,P
1686647495.5,286047000.7,N
1686647515.4,286047000.7,N
1686647535.2,286047000.9,N
1686647555.0,286047000.9,N
1686647555.9,286047000.9,N
1686647575.8,286047001.2,N
1686647595.6,286046998.6,N
1686647615.5,286046998.2,N
1686647635.3,286046998.2,N
1686647655.1,286046998.3,N
1686647675.9,286047000.8,N
1686647695.7,286047000.8,N
1686647715.5,286046998.8,N
1686647735.4,286046998.7,N
1686647755.2,286046998.7,N
1686647775.1,286046998.1,N
1686647776.0,286046998.1,N
1686647795.8,286046998.5,N
1686647815.6,286046998.5,N
1686647835.5,286046998.7,N
1686647855.3,286046998.4,N
1686647875.1,286046998.4,N
1686647895.9,286046998.6,N
1686647915.7,286046998.5,N
1686647935.6,286046999.0,N
1686647955.4,286046998.5,N
1686647975.2,286046998.9,N
1686647995.1,286046999.3,N
1686647996.0,286046999.3,N
1686648015.8,286046998.7,N
1686648035.6,286046999.3,N
1686648055.5,286046998.8,N
1686648075.3,286046999.0,N
1686648095.2,286046998.5,N
1686648115.0,286046998.4,N
1686648115.9,286046998.4,N
1686648135.7,286046998.9,N
1686648155.6,286046998.4,N
1686648175.4,286046998.6,N
1686648195.3,286046998.9,N
1686648215.1,286046999.0,N
1686648235.8,286047001.2,N
1686648255.7,286047001.1,N
1686648275.5,286046998.3,N
1686648295.4,286046998.3,N
1686648315.2,286046998.1,N
1686648335.0,286047000.6,N
1686648335.9,286047000.6,N
1686648355.8,286047000.2,N
1686648375.6,286047002.6,Y
1686648395.5,286047001.9,P
1686648415.3,286047002.5,N
1686648435.1,286047002.4,N
1686648455.9,286047002.7,N
1686648475.7,286047002.6,N
1686648495.5,286047002.4,N
1686648515.4,286047000.1,N
1686648535.2,286047002.0,N
1686648555.1,286047001.3,N
1686648556.0,286047001.3,N
1686648575.8,286047001.9,N
1686648595.6,286046999.7,N
1686648615.5,286046999.7,N
1686648635.3,286047000.9,N
1686648655.1,286047000.5,N
1686648675.9,286047000.2,N
1686648695.7,286047002.7,N
1686648715.6,286047000.1,N
1686648735.4,286047000.1,N
1686648755.2,286047002.0,N
1686648775.1,286047002.3,N
1686648776.0,286047002.3,N
1686648795.8,286047001.6,N
1686648815.6,286047002.8,N
1686648835.5,286046999.8,N
1686648855.3,286047002.5,N
1686648875.2,286047000.9,N
1686648895.9,286047000.6,N
1686648915.7,286047001.1,N
1686648935.6,286047000.9,N
1686648955.4,286047000.8,N
1686648975.2,286047000.8,N
1686648995.1,286047000.4,N
1686648996.0,286047000.4,N
1686649015.8,286047001.2,N
1686649035.7,286047001.2,N
1686649055.5,286047000.6,N
1686649075.3,286047000.3,N
1686649095.2,286047000.2,N
1686649115.0,286047000.2,N
1686649115.9,286047000.2,N
1686649135.8,286047000.1,N
1686649155.6,286047002.0,N
1686649175.4,286047000.1,N
1686649195.3,286046999.9,N
1686649215.1,286047000.1,N
1686649235.8,286046999.7,N
1686649255.7,286047000.6,N
1686649275.5,286047000.0,N
1686649295.4,286047000.8,N
1686649315.2,286046998.5,N
1686649335.0,286046998.4,N
1686649335.9,286046998.4,N
1686649355.8,286046998.7,N
1686649375.6,286046999.3,N
1686649395.4,286046999.4,N
1686649415.3,286046998.8,N
1686649435.1,286046999.1,N
1686649455.9,286047001.2,N
1686649475.7,286046999.0,N
1686649495.5,286046999.5,N
1686649515.4,286046999.2,N
1686649535.2,286046997.0,Y
1686649555.1,286046999.2,P
1686649556.0,286046999.2,N
1686649575.8,286046998.9,P
1686649595.6,286046999.4,N
1686649615.5,286046999.0,Y
1686649635.3,286046996.6,P
1686649655.1,286046997.4,N
1686649675.9,286046997.6,N
1686649695.7,286046997.3,N
1686649715.6,286046997.3,Y
1686649735.4,286047001.1,P
1686649755.2,286047001.2,N
1686649775.1,286047001.0,N
1686649776.0,286047001.0,N
1686649795.8,286047000.3,N
1686649815.7,286047000.9,N
1686649835.5,286047000.3,N
1686649855.3,286047002.2,N
1686649875.2,286047000.3,N
1686649895.0,286047000.5,N
1686649895.9,286047000.5,N
1686649915.8,286047002.4,N
1686649935.6,286047000.3,N
1686649955.4,286047000.1,N
1686649975.3,286047000.6,N
1686649995.1,286046998.4,N
1686650015.8,286046998.6,N
1686650035.7,286046998.5,N
1686650055.5,286046998.2,N
1686650075.4,286046996.6,N
1686650095.2,286046997.0,N
1686650115.0,286046997.3,N
1686650115.9,286046997.3,N
1686650135.8,286046996.8,N
1686650155.6,286046996.6,N
1686650175.4,286046999.0,N
1686650195.3,286046998.7,N
1686650215.1,286046998.7,N
1686650235.9,286046998.9,N
1686650255.7,286046997.4,N
1686650275.5,286046996.5,N
1686650295.4,286046996.9,N
1686650315.2,286046997.3,N
1686650335.0,286046997.3,N
1686650336.0,286046997.3,N
1686650355.8,286046996.6,N
1686650375.6,286046999.5,N
1686650395.5,286046999.1,N
